Location: Kapuskasing
(49.3803°N, 82.4001°W)
Time: 10:51:44
(UTC-04:00)

RS-44 - Pass Details

Date: 14 March 2026
Orbit: 1175 x 1510 km, 82.5° (Epoch: 11 April)

Event Time Altitude Azimuth Distance (km) Brightness Sun altitude
Rises 04:22:40 0° 348° (NNW) 4,367 ? -31.6°
Reaches altitude 10° 04:25:23 10° 347° (NNW) 3,434 ? -31.3°
Maximum altitude 04:33:37 76° 265° (W) 1,476 ? -30.2°
Enters shadow 04:35:37 57° 198° (SSW) 1,674 ? -29.9°
